Colby, KS

7:44 PM CST on February 19, 2017 (GMT -0600)
Shaltz

Weather History for KCBK - April, 2014

Change the Weather History Date:

Saturday, April 12, 2014

  Actual Average (KGLD) Record (KGLD)
Temperature  
Mean Temperature 60 °F -  
Max Temperature 80 °F 60 °F 82 °F (2010)
Min Temperature 41 °F 35 °F 5 °F (1997)
Degree Days  
Heating Degree Days 4    
Growing Degree Days 10 (Base 50)    
Moisture  
Dew Point 41 °F    
Average Humidity 52    
Maximum Humidity 93    
Minimum Humidity 20    
Precipitation  
Precipitation 0.00 in - - ()
Sea Level Pressure  
Sea Level Pressure 29.66 in    
Wind  
Wind Speed 11 mph (North)    
Max Wind Speed 22 mph    
Max Gust Speed 22 mph    
Visibility 10 miles    
Events      
Averages and records for this station are not official NWS values.
T = Trace of Precipitation, MM = Missing Value Source: NWS Daily Summary

Daily Weather History Graph

Daily Weather History Graph

Search for Another Location

Airport or City:

Trip Planner

Search our weather history database for the weather conditions in past years. The results will help you decide how hot, cold, wet, or windy it might be!

Date:

Astronomy

Apr. 12, 2014 Rise Set
Actual Time 7:11 AM CDT 8:19 PM CDT
Civil Twilight 6:43 AM CDT 8:46 PM CDT
Nautical Twilight 6:10 AM CDT 9:19 PM CDT
Astronomical Twilight 5:36 AM CDT 9:54 PM CDT
Moon 6:00 PM CDT (4/12) 5:38 AM CDT (4/12)
Length of Visible Light 14h 02m
Length of Day
13h 07m
Waxing Gibbous, 93% of the Moon is Illuminated
Apr 12
Waxing Gibbous
Apr 15
Full
Apr 22
Last Quarter
Apr 29
New
May 6
First Quarter

Hourly Weather History & Observations

Time (CDT) Temp. Windchill Dew Point Humidity Pressure Visibility Wind Dir Wind Speed Gust Speed Precip Events Conditions
12:10 AM 59.0 °F - 42.8 °F 55% 29.77 in 10.0 mi SSE 15.0 mph - N/A   Clear
12:30 AM 57.2 °F - 44.6 °F 63% 29.76 in 10.0 mi SSE 16.1 mph - N/A   Clear
12:50 AM 57.2 °F - 44.6 °F 63% 29.76 in 10.0 mi SSE 16.1 mph 21.9 mph N/A   Clear
1:10 AM 57.2 °F - 44.6 °F 63% 29.75 in 10.0 mi South 12.7 mph 21.9 mph N/A   Clear
1:30 AM 55.4 °F - 44.6 °F 67% 29.74 in 10.0 mi South 13.8 mph - N/A   Clear
1:50 AM 55.4 °F - 46.4 °F 72% 29.74 in 10.0 mi South 11.5 mph - N/A   Clear
2:10 AM 55.4 °F - 46.4 °F 72% 29.72 in 10.0 mi South 11.5 mph - N/A   Clear
2:30 AM 55.4 °F - 46.4 °F 72% 29.71 in 10.0 mi South 11.5 mph - N/A   Clear
2:50 AM 55.4 °F - 46.4 °F 72% 29.71 in 10.0 mi South 12.7 mph - N/A   Clear
3:10 AM 55.4 °F - 46.4 °F 72% 29.70 in 10.0 mi South 10.4 mph - N/A   Clear
3:30 AM 55.4 °F - 46.4 °F 72% 29.69 in 10.0 mi South 11.5 mph - N/A   Clear
3:50 AM 53.6 °F - 46.4 °F 77% 29.69 in 10.0 mi South 11.5 mph - N/A   Clear
4:10 AM 53.6 °F - 44.6 °F 72% 29.68 in 10.0 mi SSW 8.1 mph - N/A   Clear
4:30 AM 51.8 °F - 44.6 °F 76% 29.67 in 10.0 mi South 6.9 mph - N/A   Clear
4:50 AM 50.0 °F - 44.6 °F 82% 29.67 in 10.0 mi SSW 4.6 mph - N/A   Clear
5:10 AM 46.4 °F 43.5 °F 42.8 °F 87% 29.67 in 10.0 mi SW 5.8 mph - N/A   Clear
5:30 AM 44.6 °F 40.7 °F 42.8 °F 93% 29.66 in 10.0 mi WSW 6.9 mph - N/A   Clear
5:50 AM 42.8 °F 38.0 °F 41.0 °F 93% 29.66 in 10.0 mi West 8.1 mph - N/A   Clear
6:10 AM 42.8 °F 39.3 °F 41.0 °F 93% 29.65 in 10.0 mi West 5.8 mph - N/A   Clear
6:30 AM 41.0 °F 38.0 °F 39.2 °F 93% 29.65 in 10.0 mi WNW 4.6 mph - N/A   Clear
6:50 AM 42.8 °F 40.1 °F 39.2 °F 87% 29.66 in 10.0 mi West 4.6 mph - N/A   Clear
7:10 AM 41.0 °F 38.0 °F 39.2 °F 93% 29.67 in 10.0 mi SW 4.6 mph - N/A   Clear
7:30 AM 41.0 °F 38.0 °F 37.4 °F 87% 29.67 in 10.0 mi SW 4.6 mph - N/A   Clear
7:50 AM 42.8 °F 39.3 °F 41.0 °F 93% 29.67 in 10.0 mi WSW 5.8 mph - N/A   Clear
8:10 AM 44.6 °F 43.1 °F 41.0 °F 87% 29.68 in 10.0 mi WSW 3.5 mph - N/A   Clear
8:30 AM 48.2 °F - 41.0 °F 76% 29.68 in 10.0 mi West 3.5 mph - N/A   Clear
8:50 AM 50.0 °F - 42.8 °F 76% 29.68 in 10.0 mi Calm Calm - N/A   Clear
9:10 AM 55.4 °F - 41.0 °F 58% 29.68 in 10.0 mi NW 4.6 mph - N/A   Clear
9:30 AM 64.4 °F - 39.2 °F 40% 29.68 in 10.0 mi NW 12.7 mph - N/A   Clear
9:50 AM 64.4 °F - 37.4 °F 37% 29.68 in 10.0 mi NNW 12.7 mph 18.4 mph N/A   Clear
10:10 AM 66.2 °F - 37.4 °F 35% 29.68 in 10.0 mi NNW 9.2 mph - N/A   Clear
10:30 AM 68.0 °F - 37.4 °F 33% 29.69 in 10.0 mi NNW 10.4 mph - N/A   Clear
10:50 AM 68.0 °F - 37.4 °F 33% 29.69 in 10.0 mi NNW 12.7 mph - N/A   Clear
11:30 AM 69.8 °F - 37.4 °F 31% 29.69 in 10.0 mi NNW 12.7 mph - N/A   Clear
11:50 AM 69.8 °F - 37.4 °F 31% 29.69 in 10.0 mi NW 12.7 mph - N/A   Clear
12:10 PM 71.6 °F - 37.4 °F 29% 29.68 in 10.0 mi NNW 15.0 mph 19.6 mph N/A   Clear
12:30 PM 73.4 °F - 39.2 °F 29% 29.68 in 10.0 mi NW 13.8 mph - N/A   Clear
12:50 PM 75.2 °F - 39.2 °F 27% 29.68 in 10.0 mi NNW 11.5 mph - N/A   Clear
1:10 PM 77.0 °F - 37.4 °F 24% 29.66 in 10.0 mi NNW 11.5 mph 18.4 mph N/A   Clear
1:30 PM 77.0 °F - 41.0 °F 28% 29.65 in 10.0 mi NNW 15.0 mph 19.6 mph N/A   Clear
1:50 PM 78.8 °F - 39.2 °F 24% 29.64 in 10.0 mi North 13.8 mph 19.6 mph N/A   Clear
2:10 PM 78.8 °F - 37.4 °F 23% 29.64 in 10.0 mi NNW 10.4 mph 16.1 mph N/A   Clear
2:50 PM 80.6 °F - 37.4 °F 21% 29.62 in 10.0 mi North 10.4 mph 17.3 mph N/A   Clear
3:10 PM 80.6 °F - 37.4 °F 21% 29.62 in 10.0 mi North 10.4 mph - N/A   Clear
3:30 PM 80.6 °F - 37.4 °F 21% 29.62 in 10.0 mi North 11.5 mph - N/A   Clear
3:50 PM 80.6 °F - 35.6 °F 20% 29.61 in 10.0 mi NNW 8.1 mph - N/A   Clear
4:10 PM 80.6 °F - 35.6 °F 20% 29.61 in 10.0 mi North 9.2 mph - N/A   Clear
4:30 PM 78.8 °F - 35.6 °F 21% 29.61 in 10.0 mi NNW 11.5 mph 17.3 mph N/A   Clear
4:50 PM 78.8 °F - 35.6 °F 21% 29.60 in 10.0 mi North 11.5 mph - N/A   Clear
5:10 PM 78.8 °F - 37.4 °F 23% 29.60 in 10.0 mi NE 10.4 mph - N/A   Clear
5:30 PM 78.8 °F - 37.4 °F 23% 29.60 in 10.0 mi NNE 11.5 mph - N/A   Clear
5:50 PM 78.8 °F - 37.4 °F 23% 29.60 in 10.0 mi NNE 9.2 mph - N/A   Clear
6:10 PM 78.8 °F - 39.2 °F 24% 29.60 in 10.0 mi NE 11.5 mph - N/A   Clear
6:30 PM 78.8 °F - 39.2 °F 24% 29.60 in 10.0 mi NE 13.8 mph - N/A   Clear
6:50 PM 77.0 °F - 41.0 °F 28% 29.60 in 10.0 mi ENE 12.7 mph - N/A   Clear
7:10 PM 77.0 °F - 44.6 °F 32% 29.59 in 10.0 mi ENE 13.8 mph - N/A   Clear
7:30 PM 73.4 °F - 46.4 °F 38% 29.59 in 10.0 mi ENE 13.8 mph - N/A   Clear
7:50 PM 69.8 °F - 44.6 °F 40% 29.59 in 10.0 mi ENE 10.4 mph - N/A   Clear
8:10 PM 66.2 °F - 46.4 °F 49% 29.60 in 10.0 mi ENE 8.1 mph - N/A   Clear
8:30 PM 62.6 °F - 46.4 °F 55% 29.60 in 10.0 mi NE 10.4 mph - N/A   Clear
8:50 PM 62.6 °F - 46.4 °F 55% 29.60 in 10.0 mi NE 13.8 mph - N/A   Clear
9:10 PM 62.6 °F - 46.4 °F 55% 29.60 in 10.0 mi NE 13.8 mph - N/A   Clear
9:30 PM 60.8 °F - 46.4 °F 59% 29.61 in 10.0 mi NE 13.8 mph - N/A   Clear
9:50 PM 62.6 °F - 44.6 °F 52% 29.61 in 10.0 mi NNE 12.7 mph - N/A   Clear
10:10 PM 60.8 °F - 42.8 °F 52% 29.62 in 10.0 mi NNE 13.8 mph - N/A   Clear
10:30 PM 60.8 °F - 42.8 °F 52% 29.61 in 10.0 mi NE 18.4 mph - N/A   Clear
10:50 PM 60.8 °F - 42.8 °F 52% 29.62 in 10.0 mi NE 16.1 mph - N/A   Clear
11:10 PM 60.8 °F - 42.8 °F 52% 29.61 in 10.0 mi NE 16.1 mph - N/A   Clear
11:30 PM 60.8 °F - 41.0 °F 48% 29.62 in 10.0 mi NE 17.3 mph 21.9 mph N/A   Clear
11:50 PM 60.8 °F - 41.0 °F 48% 29.62 in 10.0 mi NE 21.9 mph - N/A   Clear